EW0641 Weather Reports


Display with metric or nautical units.
time (UTC)temp
F
wind
direction
speed
MPH
gust
MPH
rain 1hr
in
rain 24hr
in
rain mn
in
humidity
%
barometer
mb
20260503184553 61 288 0.0 0.0 0.00 0.00 0.00 43 1011.1
20260503183051 62 258 0.0 0.0 0.00 0.00 0.00 43 1011.3
20260503181600 61 293 0.0 0.0 0.00 0.00 0.00 44 1011.5
20260503180049 61 242 0.0 0.0 0.00 0.00 0.00 43 1011.7
20260503174547 61 240 0.0 0.0 0.00 0.00 0.00 41 1012.0
20260503173054 62 319 0.0 0.0 0.00 0.00 0.00 42 1012.1
20260503171544 62 306 0.0 0.0 0.00 0.00 0.00 41 1012.2
20260503081526 39 360 0.0 0.0 0.00 0.00 0.00 66 1015.0
20260503071518 40 360 0.0 0.0 0.00 0.00 0.00 68 1015.1
20260503054510 40 360 0.0 0.0 0.00 0.01 0.00 69 1015.7
20260503053011 41 360 0.0 0.0 0.00 0.01 0.00 69 1015.7
20260503051506 41 360 0.0 0.0 0.00 0.01 0.00 69 1015.8
20260503050006 41 360 0.0 0.0 0.00 0.01 0.00 69 1015.9
20260503044505 41 360 0.0 0.0 0.00 0.01 0.00 68 1016.0
20260503043006 41 360 0.0 0.0 0.00 0.01 0.00 68 1015.9
20260503041502 41 360 0.0 0.0 0.00 0.01 0.00 67 1016.0
20260503040111 41 360 0.0 0.0 0.00 0.01 0.00 67 1016.1
20260503034600 41 360 0.0 0.0 0.00 0.01 0.01 67 1016.1
20260503033110 41 360 0.0 0.0 0.00 0.01 0.01 66 1016.3
20260503031605 41 360 0.0 0.0 0.00 0.01 0.01 65 1016.3
20260503030058 41 360 0.0 0.0 0.00 0.01 0.01 65 1016.4
20260503024600 41 360 0.0 0.0 0.00 0.01 0.01 66 1016.5
20260503023104 41 360 0.0 0.0 0.00 0.01 0.01 64 1016.5
20260503021606 42 360 0.0 0.0 0.00 0.01 0.01 63 1016.5
20260503020108 42 360 0.0 0.0 0.00 0.01 0.01 61 1016.5
20260503014556 43 360 0.0 0.0 0.00 0.01 0.01 58 1016.5
20260503013106 45 360 0.0 0.0 0.00 0.01 0.01 56 1016.3
20260503011604 45 360 0.0 0.0 0.00 0.01 0.01 53 1016.3
20260503010058 46 360 0.0 0.0 0.00 0.01 0.01 52 1016.3
20260503004554 47 360 0.0 0.0 0.00 0.01 0.01 51 1016.2
20260503003101 47 360 0.0 0.0 0.00 0.01 0.01 51 1016.2
20260503001553 48 360 0.0 0.0 0.00 0.01 0.01 51 1016.2
20260503000108 48 360 0.0 0.0 0.00 0.01 0.01 51 1016.2
20260502234552 48 360 0.0 0.0 0.00 0.03 0.01 49 1016.1
20260502233052 48 360 0.0 0.0 0.00 0.03 0.01 48 1016.2
20260502231551 48 342 0.0 0.0 0.00 0.03 0.01 48 1016.3
20260502230051 48 355 0.0 0.0 0.00 0.03 0.01 48 1016.2
20260502224549 48 342 0.0 0.0 0.00 0.03 0.01 49 1016.3
20260502223050 48 343 0.0 0.0 0.00 0.03 0.01 47 1016.3
20260502221548 49 350 0.0 0.0 0.00 0.03 0.01 48 1016.3
20260502220048 48 11 0.0 0.0 0.00 0.03 0.01 48 1016.3
20260502214547 48 9 0.0 0.0 0.00 0.03 0.01 49 1016.3
20260502213046 49 336 0.0 0.0 0.00 0.03 0.01 50 1016.4
20260502211552 48 347 0.0 0.0 0.00 0.03 0.01 48 1016.3
20260502210044 48 321 0.0 0.0 0.00 0.03 0.01 47 1016.4
20260502204543 48 350 0.0 0.0 0.00 0.03 0.01 47 1016.4
20260502203043 48 337 0.0 0.0 0.00 0.03 0.01 47 1016.5
20260502201540 48 29 0.0 0.0 0.00 0.03 0.01 48 1016.6
20260502200044 48 355 0.0 0.0 0.00 0.03 0.01 48 1016.8
20260502194538 48 315 0.0 0.0 0.00 0.03 0.01 47 1017.0
20260502193037 48 17 0.0 0.0 0.00 0.03 0.01 50 1017.2
20260502191538 48 355 0.0 0.0 0.00 0.03 0.01 47 1017.2
20260502190036 47 5 0.0 0.0 0.00 0.03 0.01 47 1017.4